Total_Precipitation_Accumulation
1.91 2.20 2.58 2.93 3.14 3.30 3.40 3.71 3.94 3.69 3.23 2.81 2.32 2.14 2.08 1.88 1.65 1.49 1.38 1.46 1.42 1.60 1.79 1.56 1.82 1.61 1.60 1.69 1.72 1.87 1.86 1.71 1.67 2.01 2.16 1.71 1.33 1.34 1.22 1.19 1.41 1.47 1.51
1.50 1.59 1.78 2.12 2.25 2.44 2.75 3.11 3.36 3.20 2.67 2.45 2.26 2.12 2.06 1.92 1.86 1.70 1.61 1.43 1.41 1.51 1.46 1.75 1.62 1.64 1.76 1.79 1.85 1.97 1.98 1.77 1.72 2.04 2.39 2.11 2.00 1.78 1.07 1.14 1.31 1.40 1.61
1.22 1.27 1.26 1.43 1.77 2.27 2.43 2.37 2.61 2.80 2.55 2.44 2.36 2.26 2.18 1.97 2.02 1.94 1.78 1.44 1.30 1.34 1.41 1.46 1.51 1.73 1.57 1.84 2.04 1.99 2.05 2.05 1.89 1.90 2.27 2.31 2.24 1.89 1.45 1.17 1.15 1.32 1.67
0.83 1.00 0.99 1.10 1.32 1.60 1.87 2.08 2.33 2.51 2.44 2.33 2.13 1.96 1.78 1.69 1.69 1.72 1.72 1.58 1.46 1.31 1.32 1.34 1.54 1.73 1.56 1.96 1.65 1.74 1.98 2.11 1.95 1.86 1.73 1.78 1.96 2.09 1.96 1.59 1.27 1.26 1.44
0.48 0.67 0.78 0.89 0.94 1.13 1.52 1.94 2.28 2.52 2.40 2.10 1.93 1.93 1.82 1.78 1.70 1.64 1.83 1.72 1.63 1.43 1.25 1.35 1.53 1.61 1.55 1.69 1.75 2.03 1.94 1.88 1.87 1.87 1.89 1.95 1.85 1.67 1.79 1.81 1.69 1.53 1.22
0.35 0.46 0.54 0.67 0.79 0.93 1.19 1.55 1.86 2.09 2.10 1.96 1.87 1.91 1.93 1.89 1.76 1.57 1.59 1.50 1.51 1.46 1.36 1.44 1.55 1.54 1.49 1.60 1.67 1.84 1.83 1.91 1.98 1.83 1.73 1.86 1.79 1.70 1.73 1.56 1.49 1.51 1.13
0.31 0.43 0.51 0.60 0.67 0.71 0.90 1.19 1.39 1.54 1.74 1.85 1.84 1.80 1.91 1.91 1.71 1.52 1.49 1.50 1.37 1.32 1.35 1.47 1.68 1.62 1.63 1.65 1.81 1.82 1.76 1.84 1.88 1.73 1.61 1.57 1.45 1.55 1.67 1.72 1.49 1.36 1.05
0.26 0.40 0.50 0.54 0.55 0.56 0.73 0.89 1.07 1.28 1.52 1.67 1.73 1.71 1.65 1.54 1.51 1.60 1.51 1.46 1.44 1.40 1.34 1.46 1.51 1.54 1.62 1.64 1.99 1.79 1.67 1.73 1.70 1.53 1.73 1.64 1.34 1.38 1.51 1.69 1.85 1.65 1.34
0.36 0.42 0.53 0.55 0.47 0.49 0.59 0.66 0.85 1.05 1.19 1.40 1.52 1.46 1.49 1.39 1.40 1.47 1.43 1.39 1.51 1.51 1.46 1.39 1.41 1.49 1.63 1.78 1.92 1.80 1.79 1.82 1.63 1.55 1.70 1.58 1.40 1.36 1.32 1.56 1.88 2.05 1.83
0.48 0.52 0.51 0.54 0.48 0.47 0.57 0.65 0.81 0.93 1.00 1.17 1.25 1.17 1.37 1.42 1.54 1.50 1.41 1.35 1.35 1.40 1.46 1.47 1.44 1.53 1.61 1.77 1.90 1.90 1.99 2.02 1.84 1.73 1.73 1.62 1.48 1.55 1.40 1.46 1.74 1.96 2.09
0.56 0.55 0.51 0.54 0.52 0.53 0.59 0.65 0.79 0.89 0.95 1.09 1.15 1.20 1.29 1.36 1.43 1.45 1.46 1.44 1.41 1.43 1.45 1.50 1.54 1.56 1.61 1.77 1.87 1.77 1.97 2.08 2.11 1.92 1.83 1.75 1.75 1.74 1.60 1.62 1.72 1.80 2.02
0.42 0.50 0.53 0.60 0.52 0.55 0.59 0.63 0.72 0.81 0.88 1.07 1.22 1.27 1.39 1.44 1.39 1.40 1.59 1.63 1.59 1.56 1.55 1.59 1.69 1.67 1.70 1.80 1.77 1.64 1.72 1.90 2.08 2.26 2.31 2.09 2.01 1.97 1.82 1.79 1.76 1.80 1.97
0.44 0.53 0.62 0.61 0.55 0.56 0.62 0.66 0.72 0.79 0.87 1.01 1.14 1.31 1.39 1.45 1.54 1.67 1.83 1.92 1.84 1.79 1.80 1.84 1.79 1.81 1.84 1.79 1.71 1.69 1.74 1.85 1.92 2.10 2.28 2.28 2.38 2.14 2.08 1.99 1.90 1.86 1.84
0.44 0.49 0.67 0.71 0.61 0.57 0.62 0.67 0.77 0.86 0.96 1.16 1.30 1.41 1.59 1.72 1.79 1.81 1.90 1.93 1.93 1.96 1.95 1.97 1.91 1.88 1.93 1.90 1.85 1.82 1.80 1.85 1.85 1.87 1.93 2.07 2.32 2.30 2.29 2.15 2.13 2.14 2.12
0.50 0.61 0.75 0.88 0.86 0.79 0.73 0.76 0.93 1.09 1.29 1.49 1.53 1.56 1.68 1.81 1.95 2.12 2.16 2.14 2.13 2.07 2.17 2.13 2.04 2.02 2.03 1.89 1.99 2.15 2.12 2.17 2.01 1.91 1.85 1.83 2.07 2.16 2.17 1.96 2.02 2.19 2.24
0.60 0.65 0.83 1.01 1.11 1.13 1.11 1.15 1.28 1.49 1.74 1.99 2.09 2.19 2.27 2.34 2.40 2.46 2.47 2.50 2.46 2.38 2.27 2.17 2.18 2.16 1.98 2.10 2.17 2.08 2.13 2.28 2.27 2.14 2.07 1.96 1.92 1.91 1.94 1.97 2.01 2.08 2.08
0.76 0.80 0.95 1.07 1.22 1.27 1.34 1.48 1.63 1.83 2.03 2.17 2.26 2.38 2.45 2.55 2.64 2.68 2.68 2.55 2.48 2.42 2.30 2.28 2.29 2.22 2.26 2.22 1.99 1.85 1.87 1.93 2.02 2.09 2.07 1.87 1.74 1.88 1.82 1.98 2.00 1.87 1.81
0.90 0.91 1.01 1.12 1.19 1.33 1.49 1.64 1.72 1.86 2.15 2.32 2.37 2.39 2.42 2.48 2.62 2.76 2.66 2.48 2.42 2.37 2.33 2.29 2.17 2.10 2.05 2.05 1.83 1.80 1.74 1.70 1.67 1.78 1.87 1.84 1.76 1.77 1.84 1.79 1.60 1.48 1.47
0.91 0.97 1.08 1.18 1.29 1.34 1.40 1.42 1.49 1.64 1.85 2.06 2.17 2.15 2.27 2.45 2.53 2.55 2.54 2.53 2.45 2.28 2.16 2.05 2.00 1.94 1.99 2.13 1.92 1.83 1.71 1.73 1.62 1.61 1.60 1.60 1.50 1.59 1.64 1.55 1.39 1.28 1.25
0.92 1.02 1.16 1.22 1.23 1.25 1.27 1.32 1.44 1.64 1.84 2.03 2.20 2.31 2.39 2.52 2.54 2.57 2.66 2.64 2.55 2.48 2.42 2.27 2.16 2.09 2.05 2.18 1.93 1.78 1.66 1.71 1.68 1.67 1.67 1.72 1.53 1.43 1.33 1.26 1.27 1.14 1.06
0.92 1.01 1.16 1.29 1.29 1.31 1.44 1.54 1.66 1.81 1.96 2.03 2.11 2.21 2.32 2.46 2.63 2.78 2.73 2.69 2.63 2.53 2.35 2.16 2.04 1.99 1.97 1.95 1.74 1.60 1.45 1.46 1.48 1.41 1.37 1.45 1.47 1.27 1.10 1.09 1.07 1.01 1.01
0.82 0.99 1.11 1.25 1.39 1.51 1.65 1.77 1.79 1.83 1.95 2.11 2.17 2.20 2.31 2.33 2.40 2.48 2.45 2.44 2.45 2.42 2.35 2.30 2.23 2.16 2.02 1.77 1.54 1.39 1.28 1.28 1.28 1.39 1.41 1.49 1.53 1.28 1.11 0.96 0.88 0.89 0.85
0.90 0.99 1.09 1.22 1.33 1.51 1.67 1.81 1.89 1.95 2.02 2.09 2.19 2.29 2.32 2.33 2.40 2.51 2.52 2.46 2.38 2.33 2.23 2.13 1.97 1.95 1.98 1.90 1.64 1.37 1.24 1.23 1.18 1.39 1.67 1.68 1.63 1.42 1.15 1.05 1.03 0.94 0.82
1.09 1.11 1.17 1.23 1.31 1.41 1.57 1.74 1.85 1.88 2.00 2.06 2.10 2.21 2.31 2.40 2.49 2.49 2.40 2.27 2.12 2.05 1.97 1.86 1.77 1.77 1.80 1.72 1.65 1.50 1.36 1.34 1.30 1.39 1.62 1.74 1.74 1.63 1.45 1.35 1.25 1.04 0.96
1.14 1.16 1.22 1.28 1.32 1.38 1.46 1.67 1.86 1.92 1.94 2.05 2.09 2.06 2.07 2.13 2.20 2.24 2.21 2.08 1.95 1.85 1.79 1.69 1.67 1.65 1.64 1.65 1.63 1.46 1.34 1.30 1.33 1.46 1.68 1.81 1.91 1.92 1.85 1.72 1.61 1.48 1.33
1.21 1.22 1.23 1.26 1.32 1.42 1.53 1.61 1.84 2.06 2.10 2.07 1.94 1.84 1.74 1.71 1.72 1.72 1.77 1.88 1.77 1.74 1.60 1.50 1.44 1.41 1.45 1.46 1.38 1.27 1.20 1.24 1.33 1.40 1.54 1.76 1.93 2.00 2.08 2.09 1.98 1.77 1.58